period_start,C,m1,H,J0,J1,J2,J3,J4,J5,JA,JB,JC,JD,JJ,JK,JN,#
2018-09-24 00:00:42,0.00,0.00,0.00,26.85,31.25,33.25,-0.15,-4.75,1015.64,2010.00,3633.04,3044.07,3506.42,0.00,0.00,0.00,0000 0000 0000 A000 020008
2018-09-24 00:05:43,0.00,0.00,0.00,26.85,31.25,33.23,-0.15,-4.75,1015.64,2010.00,3633.02,3044.07,3506.40,0.00,0.00,0.00,0000 0000 0000 A000 020008
2018-09-24 00:10:44,0.00,0.00,0.00,26.86,31.26,33.20,-0.15,-4.74,1015.64,2010.00,3633.02,3044.03,3506.15,0.00,0.00,0.00,0000 0000 0000 A000 020008
2018-09-24 00:15:45,0.00,0.00,0.00,26.87,31.27,33.24,-0.14,-4.74,1015.64,2010.00,3633.01,3044.03,3506.12,0.00,0.00,0.00,0000 0000 0000 A000 020008
2018-09-24 00:20:46,0.00,0.00,0.00,26.87,31.27,33.24,-0.15,-4.75,1015.63,2010.00,3633.01,3044.02,3506.06,0.00,0.00,0.00,0000 0000 0000 A000 020008
2018-09-24 00:25:47,0.00,0.00,0.00,26.88,31.27,33.25,-0.15,-4.75,1015.56,2009.98,3633.00,3044.01,3506.03,0.00,0.00,0.00,0000 0000 0000 A000 020008
2018-09-24 00:30:49,0.00,0.00,0.00,26.90,31.29,33.26,-0.15,-4.75,1015.58,2009.98,3633.00,3044.00,3506.02,0.00,0.00,0.00,0000 0000 0000 A000 020008
2018-09-24 00:35:50,0.00,0.00,0.00,26.90,31.30,33.24,-0.15,-4.75,1015.42,2009.97,3633.00,3044.00,3506.00,0.00,0.00,0.00,0000 0000 0000 A000 020008
2018-09-24 00:40:51,0.00,0.00,0.00,26.91,31.30,33.25,-0.15,-4.75,1015.37,2009.97,3633.00,3044.00,3506.00,0.00,0.00,0.00,0000 0000 0000 A000 020008
2018-09-24 00:45:53,0.00,0.00,0.00,26.93,31.31,33.27,-0.15,-4.75,1015.25,2009.94,3632.98,3044.00,3506.00,0.00,0.00,0.00,0000 0000 0000 A000 020008
2018-09-24 00:50:54,0.00,0.00,0.00,26.95,31.32,33.31,-0.15,-4.74,1015.17,2009.91,3632.98,3043.99,3506.00,0.00,0.00,0.00,0000 0000 0000 A000 020008
2018-09-24 00:55:55,0.00,0.00,0.00,26.96,31.32,33.35,-0.15,-4.75,1015.19,2009.93,3632.99,3043.99,3506.00,0.00,0.00,0.00,0000 0000 0000 A000 020008
2018-09-24 01:00:56,0.00,0.00,0.00,26.97,31.34,33.36,-0.15,-4.75,1015.18,2009.95,3632.98,3043.99,3506.00,0.00,0.00,0.00,0000 0000 0000 A000 020008
2018-09-24 01:05:58,0.00,0.00,0.00,26.99,31.35,33.37,-0.15,-4.75,1015.16,2009.77,3632.93,3043.97,3505.97,0.00,0.00,0.00,0000 0000 0000 A000 020008
2018-09-24 01:10:59,0.00,0.00,0.00,27.01,31.35,33.36,-0.15,-4.75,1015.16,2009.50,3632.73,3043.93,3505.92,0.00,0.00,0.00,0000 0000 0000 A000 020008
2018-09-24 01:16:00,0.00,0.00,0.00,26.98,31.37,33.40,-0.15,-4.75,1015.17,2009.31,3632.43,3043.81,3505.75,0.00,0.00,0.00,0000 0000 0000 A000 020008
2018-09-24 01:21:01,0.00,0.00,0.00,26.96,31.37,33.37,-0.15,-4.75,1015.15,2009.16,3632.16,3043.60,3505.48,0.00,0.00,0.00,0000 0000 0000 A000 020008
2018-09-24 01:26:02,0.00,0.00,0.00,26.95,31.37,33.36,-0.14,-4.75,1015.15,2009.15,3632.21,3043.62,3505.50,0.00,0.00,0.00,0000 0000 0000 A000 020008
2018-09-24 01:31:03,0.00,0.00,0.00,26.97,31.37,33.36,-0.15,-4.75,1015.15,2009.17,3632.22,3043.62,3505.48,0.00,0.00,0.00,0000 0000 0000 A000 020008
2018-09-24 01:36:04,0.00,0.00,0.00,27.00,31.39,33.36,-0.15,-4.75,1015.15,2009.09,3632.08,3043.31,3505.17,0.00,0.00,0.00,0000 0000 0000 A000 020008
2018-09-24 01:41:05,0.00,0.00,0.00,26.98,31.40,33.37,-0.15,-4.75,1015.15,2009.07,3632.06,3043.24,3505.13,0.00,0.00,0.00,0000 0000 0000 A000 020008
2018-09-24 01:46:06,0.00,0.00,0.00,26.87,31.40,33.26,-0.15,-4.75,1015.14,2009.05,3632.05,3043.15,3505.08,0.00,0.00,0.00,0000 0000 0000 A000 020008
2018-09-24 01:51:07,0.00,0.00,0.00,26.77,31.40,33.00,-0.15,-4.75,1015.14,2009.03,3632.01,3043.10,3505.03,0.00,0.00,0.00,0000 0000 0000 A000 020008
2018-09-24 01:56:09,0.00,0.00,0.00,26.68,31.39,32.78,-0.15,-4.75,1015.09,2009.05,3632.02,3043.21,3505.10,0.00,0.00,0.00,0000 0000 0000 A000 020008
2018-09-24 02:01:10,0.00,0.00,0.00,26.63,31.37,32.61,-0.15,-4.75,1014.94,2009.16,3632.11,3043.58,3505.45,0.00,0.00,0.00,0000 0000 0000 A000 020008
2018-09-24 02:06:12,0.00,0.00,0.00,26.58,31.35,32.43,-0.15,-4.75,1014.76,2009.46,3632.70,3043.94,3505.93,0.00,0.00,0.00,0000 0000 0000 A000 020008
2018-09-24 02:11:13,0.00,0.00,0.00,26.54,31.31,32.24,-0.15,-4.75,1014.69,2009.88,3632.98,3043.99,3505.99,0.00,0.00,0.00,0000 0000 0000 A000 020008
2018-09-24 02:16:14,0.00,0.00,0.00,26.51,31.26,32.09,-0.15,-4.75,1014.67,2009.98,3632.99,3044.02,3506.06,0.00,0.00,0.00,0000 0000 0000 A000 020008
2018-09-24 02:21:15,0.00,0.00,0.00,26.49,31.21,31.93,-0.15,-4.73,1014.66,2009.99,3633.20,3044.52,3506.70,0.00,0.00,0.00,0000 0000 0000 A000 020008
2018-09-24 02:26:17,0.00,0.00,0.00,26.46,31.15,31.84,-0.15,-4.69,1014.66,2009.99,3633.89,3044.98,3506.99,0.00,0.00,0.00,0000 0000 0000 A000 020008
2018-09-24 02:31:18,0.00,0.00,0.00,26.45,31.09,31.70,-0.15,-4.66,1014.66,2010.26,3634.01,3045.04,3507.35,0.00,0.00,0.00,0000 0000 0000 A000 020008
2018-09-24 02:36:19,0.00,0.00,0.00,26.42,31.02,31.64,-0.15,-4.56,1014.60,2010.91,3634.69,3045.78,3507.97,0.00,0.00,0.00,0000 0000 0000 A000 020008
2018-09-24 02:41:20,0.00,0.00,0.00,26.41,30.95,31.53,-0.15,-4.52,1014.40,2010.99,3634.99,3045.99,3508.26,0.00,0.00,0.00,0000 0000 0000 A000 020008
2018-09-24 02:46:21,0.00,0.00,0.00,26.40,30.88,31.46,-0.15,-4.53,1014.22,2011.01,3635.24,3046.36,3508.91,0.00,0.00,0.00,0000 0000 0000 A000 020008
2018-09-24 02:51:22,0.00,0.00,0.00,26.40,30.82,31.39,-0.15,-4.50,1014.19,2011.29,3635.91,3046.95,3509.08,0.00,0.00,0.00,0000 0000 0000 A000 020008
2018-09-24 02:56:23,0.00,0.00,0.00,26.39,30.75,31.35,-0.15,-4.51,1014.19,2011.92,3636.02,3047.07,3509.84,0.00,0.00,0.00,0000 0000 0000 A000 020008
2018-09-24 03:01:24,0.00,0.00,0.00,26.39,30.69,31.28,-0.15,-4.50,1014.18,2011.99,3636.65,3047.83,3510.03,0.00,0.00,0.00,0000 0000 0000 A000 020008
2018-09-24 03:06:25,0.00,0.00,0.00,26.40,30.62,31.28,-0.15,-4.50,1014.18,2012.01,3636.99,3047.99,3510.74,0.00,0.00,0.00,0000 0000 0000 A000 020008
2018-09-24 03:11:26,0.00,0.00,0.00,26.40,30.56,31.23,-0.15,-4.50,1014.17,2012.25,3637.20,3048.26,3511.00,0.00,0.00,0.00,0000 0000 0000 A000 020008
2018-09-24 03:16:27,0.00,0.00,0.00,26.41,30.50,31.21,-0.15,-4.50,1014.15,2012.89,3637.89,3048.92,3511.43,0.00,0.00,0.00,0000 0000 0000 A000 020008
2018-09-24 03:21:28,0.00,0.00,0.00,26.42,30.45,31.18,-0.15,-4.50,1014.14,2012.99,3638.03,3049.00,3511.97,0.00,0.00,0.00,0000 0000 0000 A000 020008
2018-09-24 03:26:30,0.00,0.00,0.00,26.43,30.40,31.18,-0.15,-4.50,1014.06,2013.00,3638.56,3049.43,3512.16,0.00,0.00,0.00,0000 0000 0000 A000 020008
2018-09-24 03:31:31,0.00,0.00,0.00,26.45,30.35,31.16,-0.15,-4.50,1013.80,2013.10,3638.99,3049.97,3512.91,0.00,0.00,0.00,0000 0000 0000 A000 020008
2018-09-24 03:36:32,0.00,0.00,0.00,26.45,30.30,31.12,-0.15,-4.50,1013.78,2013.61,3639.02,3049.99,3512.99,0.00,0.00,0.00,0000 0000 0000 A000 020008
2018-09-24 03:41:33,0.00,0.00,0.00,26.46,30.26,31.11,-0.15,-4.50,1013.77,2013.96,3639.65,3050.34,3513.29,0.00,0.00,0.00,0000 0000 0000 A000 020008
2018-09-24 03:46:35,0.00,0.00,0.00,26.47,30.21,31.13,-0.15,-4.50,1013.75,2013.99,3639.98,3050.95,3513.94,0.00,0.00,0.00,0000 0000 0000 A000 020008
2018-09-24 03:51:36,0.00,0.00,0.00,26.50,30.18,31.12,-0.15,-4.50,1013.72,2013.99,3640.01,3051.00,3514.00,0.00,0.00,0.00,0000 0000 0000 A000 020008
2018-09-24 03:56:37,0.00,0.00,0.00,26.50,30.14,31.12,-0.15,-4.50,1013.70,2014.05,3640.49,3051.16,3514.47,0.00,0.00,0.00,0000 0000 0000 A000 020008
2018-09-24 04:01:38,0.00,0.00,0.00,26.52,30.11,31.13,-0.15,-4.50,1013.70,2014.38,3640.92,3051.70,3514.91,0.00,0.00,0.00,0000 0000 0000 A000 020008
2018-09-24 04:06:39,0.00,0.00,0.00,26.54,30.08,31.15,-0.15,-4.50,1013.69,2014.92,3640.99,3051.99,3514.99,0.00,0.00,0.00,0000 0000 0000 A000 020008
2018-09-24 04:11:41,0.00,0.00,0.00,26.56,30.05,31.15,-0.15,-4.50,1013.70,2014.98,3641.02,3051.99,3515.05,0.00,0.00,0.00,0000 0000 0000 A000 020008
2018-09-24 04:16:42,0.00,0.00,0.00,26.57,30.02,31.16,-0.15,-4.50,1013.69,2014.99,3641.13,3052.03,3515.40,0.00,0.00,0.00,0000 0000 0000 A000 020008
2018-09-24 04:21:43,0.00,0.00,0.00,26.59,30.00,31.15,-0.15,-4.50,1013.69,2014.99,3641.47,3052.07,3515.87,0.00,0.00,0.00,0000 0000 0000 A000 020008
2018-09-24 04:26:44,0.00,0.00,0.00,26.61,29.98,31.16,-0.15,-4.50,1013.69,2015.01,3641.94,3052.61,3515.98,0.00,0.00,0.00,0000 0000 0000 A000 020008
2018-09-24 04:31:45,0.00,0.00,0.00,26.62,29.96,31.21,-0.15,-4.50,1013.69,2015.03,3641.99,3052.96,3515.99,0.00,0.00,0.00,0000 0000 0000 A000 020008
2018-09-24 04:36:46,0.00,0.00,0.00,26.65,29.95,31.20,-0.15,-4.50,1013.69,2015.09,3641.99,3052.98,3515.99,0.00,0.00,0.00,0000 0000 0000 A000 020008
2018-09-24 04:41:47,0.00,0.00,0.00,26.67,29.93,31.23,-0.15,-4.50,1013.69,2015.28,3641.99,3052.99,3516.02,0.00,0.00,0.00,0000 0000 0000 A000 020008
2018-09-24 04:46:49,0.00,0.00,0.00,26.68,29.92,31.27,-0.15,-4.50,1013.69,2015.67,3642.03,3052.99,3516.25,0.00,0.00,0.00,0000 0000 0000 A000 020008
2018-09-24 04:51:50,0.00,0.00,0.00,26.71,29.91,31.27,-0.15,-4.50,1013.69,2015.92,3642.11,3053.00,3516.69,0.00,0.00,0.00,0000 0000 0000 A000 020008
2018-09-24 04:56:51,0.00,0.00,0.00,26.72,29.90,31.32,-0.15,-4.50,1013.69,2015.94,3642.27,3053.02,3516.85,0.00,0.00,0.00,0000 0000 0000 A000 020008
2018-09-24 05:01:52,0.00,0.00,0.00,26.75,29.90,31.34,-0.15,-4.50,1013.68,2015.98,3642.68,3053.05,3516.96,0.00,0.00,0.00,0000 0000 0000 A000 020008
2018-09-24 05:06:54,0.00,0.00,0.00,26.76,29.89,31.33,-0.15,-4.50,1013.69,2015.99,3642.93,3053.22,3516.99,0.00,0.00,0.00,0000 0000 0000 A000 020008
2018-09-24 05:11:55,0.00,0.00,0.00,26.78,29.87,31.36,-0.15,-4.51,1013.69,2015.99,3642.94,3053.37,3516.99,0.00,0.00,0.00,0000 0000 0000 A000 020008
2018-09-24 05:16:56,0.00,0.00,0.00,26.79,29.87,31.32,-0.15,-4.50,1013.67,2015.99,3642.99,3053.63,3516.99,0.00,0.00,0.00,0000 0000 0000 A000 020008
2018-09-24 05:21:57,0.00,0.00,0.00,26.80,29.87,31.37,-0.15,-4.50,1013.67,2015.99,3642.99,3053.76,3516.99,0.00,0.00,0.00,0000 0000 0000 A000 020008
2018-09-24 05:26:59,0.00,0.00,0.00,26.82,29.87,31.39,-0.15,-4.50,1013.63,2015.99,3642.98,3053.71,3517.00,0.00,0.00,0.00,0000 0000 0000 A000 020008
2018-09-24 05:32:00,0.00,0.00,0.00,26.84,29.87,31.41,-0.15,-4.51,1013.52,2015.99,3642.97,3053.68,3517.00,0.00,0.00,0.00,0000 0000 0000 A000 020008
2018-09-24 05:37:01,0.00,0.00,0.00,26.85,29.87,31.45,-0.15,-4.52,1013.55,2015.99,3642.99,3053.83,3517.00,0.00,0.00,0.00,0000 0000 0000 A000 020008
2018-09-24 05:42:02,0.00,0.00,0.00,26.87,29.87,31.43,-0.15,-4.51,1013.54,2015.99,3642.98,3053.70,3517.00,0.00,0.00,0.00,0000 0000 0000 A000 020008
2018-09-24 05:47:03,0.00,0.00,0.00,26.89,29.88,31.48,-0.15,-4.52,1013.54,2015.99,3642.97,3053.64,3517.00,0.00,0.00,0.00,0000 0000 0000 A000 020008
2018-09-24 05:52:05,0.00,0.00,0.00,26.90,29.90,31.49,-0.15,-4.52,1013.59,2015.99,3642.95,3053.41,3517.00,0.00,0.00,0.00,0000 0000 0000 A000 020008
2018-09-24 05:57:06,0.00,0.00,0.00,26.92,29.90,31.51,-0.15,-4.51,1013.59,2015.99,3642.98,3053.44,3516.99,0.00,0.00,0.00,0000 0000 0000 A000 020008
2018-09-24 06:02:07,0.00,0.00,0.00,26.94,29.90,31.51,-0.15,-4.52,1013.58,2015.99,3642.94,3053.44,3516.99,0.00,0.00,0.00,0000 0000 0000 A000 020008
2018-09-24 06:07:08,0.00,0.00,0.00,26.95,29.90,31.55,-0.15,-4.53,1013.54,2015.99,3642.94,3053.35,3516.99,0.00,0.00,0.00,0000 0000 0000 A000 020008
2018-09-24 06:12:10,0.00,0.00,0.00,26.96,29.92,31.55,-0.15,-4.53,1013.44,2015.99,3642.80,3053.15,3516.99,0.00,0.00,0.00,0000 0000 0000 A000 020008
2018-09-24 06:17:11,0.00,0.00,0.00,26.97,29.92,31.57,-0.15,-4.54,1013.41,2015.98,3642.48,3053.04,3516.96,0.00,0.00,0.00,0000 0000 0000 A000 020008
2018-09-24 06:22:12,0.00,0.00,0.00,26.99,29.92,31.59,-0.15,-4.57,1013.31,2015.97,3642.46,3053.04,3516.97,0.00,0.00,0.00,0000 0000 0000 A000 020008
2018-09-24 06:27:14,0.00,0.00,0.00,27.01,29.94,31.60,-0.15,-4.65,1013.23,2015.97,3642.36,3053.02,3516.93,0.00,0.00,0.00,0000 0000 0000 A000 020008
2018-09-24 06:32:15,0.00,0.00,0.00,27.02,29.95,31.65,-0.15,-4.61,1013.22,2015.97,3642.14,3053.01,3516.84,0.00,0.00,0.00,0000 0000 0000 A000 020008
2018-09-24 06:37:16,0.00,0.00,0.00,27.04,29.95,31.63,-0.15,-4.60,1013.21,2015.98,3642.10,3053.01,3516.83,0.00,0.00,0.00,0000 0000 0000 A000 020008
2018-09-24 06:42:17,0.00,0.00,0.00,27.05,29.97,31.66,-0.15,-4.66,1013.20,2015.97,3642.10,3053.00,3516.79,0.00,0.00,0.00,0000 0000 0000 A000 020008
2018-09-24 06:47:18,0.00,0.00,0.00,27.07,29.97,31.68,-0.15,-4.66,1013.20,2015.95,3642.05,3053.00,3516.62,0.00,0.00,0.00,0000 0000 0000 A000 020008
2018-09-24 06:52:20,0.00,0.00,0.00,27.08,29.99,31.74,-0.15,-4.68,1013.20,2015.88,3642.02,3053.00,3516.17,0.00,0.00,0.00,0000 0000 0000 A000 020008
2018-09-24 06:57:21,0.00,0.00,0.00,27.10,30.00,31.73,-0.15,-4.69,1013.20,2015.80,3642.01,3053.00,3516.13,0.00,0.00,0.00,0000 0000 0000 A000 020008
2018-09-24 07:02:22,0.00,0.00,0.00,27.12,30.01,31.73,-0.15,-4.70,1013.20,2015.55,3642.00,3052.99,3516.01,0.00,0.00,0.00,0000 0000 0000 A000 020008
2018-09-24 07:07:24,0.00,0.00,0.00,27.12,30.02,31.73,-0.15,-4.72,1013.20,2015.33,3642.00,3052.98,3516.00,0.00,0.00,0.00,0000 0000 0000 A000 020008
2018-09-24 07:12:25,0.00,0.00,0.00,27.13,30.04,31.77,-0.15,-4.72,1013.20,2015.29,3641.98,3052.93,3516.00,0.00,0.00,0.00,0000 0000 0000 A000 020008
2018-09-24 07:17:26,0.00,0.00,0.00,27.16,30.05,31.77,-0.15,-4.70,1013.20,2015.08,3641.99,3052.81,3516.00,0.00,0.00,0.00,0000 0000 0000 A000 020008
2018-09-24 07:22:28,0.00,0.00,0.00,27.17,30.06,31.79,-0.15,-4.67,1013.21,2015.06,3641.97,3052.75,3516.00,0.00,0.00,0.00,0000 0000 0000 A000 020008
2018-09-24 07:27:29,0.00,0.00,0.00,27.17,30.07,31.81,-0.15,-4.70,1013.21,2015.06,3641.94,3052.60,3515.99,0.00,0.00,0.00,0000 0000 0000 A000 020008
2018-09-24 07:32:31,0.00,0.00,0.00,27.20,30.09,31.82,-0.15,-4.72,1013.20,2015.02,3641.76,3052.26,3515.96,0.00,0.00,0.00,0000 0000 0000 A000 020008
2018-09-24 07:37:32,0.00,0.00,0.00,27.20,30.10,31.80,-0.15,-4.74,1013.22,2015.02,3641.58,3052.09,3515.94,0.00,0.00,0.00,0000 0000 0000 A000 020008
2018-09-24 07:42:33,0.00,0.00,0.00,27.22,30.12,31.89,-0.15,-4.74,1013.22,2015.01,3641.26,3052.03,3515.81,0.00,0.00,0.00,0000 0000 0000 A000 020008
2018-09-24 07:47:34,0.00,0.00,0.00,27.22,30.12,31.87,-0.15,-4.75,1013.24,2015.00,3641.09,3052.01,3515.59,0.00,0.00,0.00,0000 0000 0000 A000 020008
2018-09-24 07:52:36,0.00,0.00,0.00,27.25,30.15,31.86,-0.15,-4.72,1013.26,2015.00,3641.05,3052.01,3515.38,0.00,0.00,0.00,0000 0000 0000 A000 020008
2018-09-24 07:57:37,0.00,0.00,0.00,27.25,30.15,31.92,-0.15,-4.73,1013.31,2015.00,3641.02,3052.00,3515.15,0.00,0.00,0.00,0000 0000 0000 A000 020008
2018-09-24 08:02:38,0.00,0.00,0.00,27.26,30.17,31.91,-0.15,-4.74,1013.45,2014.99,3641.00,3052.00,3515.01,0.00,0.00,0.00,0000 0000 0000 A000 020008
2018-09-24 08:07:39,0.00,0.00,0.00,27.28,30.18,31.95,-0.15,-4.74,1013.66,2014.99,3641.00,3052.00,3515.00,0.00,0.00,0.00,0000 0000 0000 A000 020008
2018-09-24 08:12:41,0.00,0.00,0.00,27.29,30.20,31.95,-0.15,-4.74,1013.69,2014.98,3641.00,3052.00,3515.00,0.00,0.00,0.00,0000 0000 0000 A000 020008
2018-09-24 08:17:42,0.00,0.00,0.00,27.30,30.21,31.94,-0.15,-4.74,1013.69,2014.98,3641.00,3052.00,3515.00,0.00,0.00,0.00,0000 0000 0000 A000 020008
2018-09-24 08:22:43,0.00,0.00,0.00,27.31,30.22,31.92,-0.15,-4.75,1013.69,2014.93,3640.97,3051.94,3514.99,0.00,0.00,0.00,0000 0000 0000 A000 020008
2018-09-24 08:27:44,0.00,0.00,0.00,27.32,30.23,31.95,-0.15,-4.73,1013.69,2014.89,3640.96,3051.86,3514.98,0.00,0.00,0.00,0000 0000 0000 A000 020008
2018-09-24 08:32:45,0.00,0.00,0.00,27.33,30.25,31.98,-0.15,-4.74,1013.69,2014.86,3640.94,3051.74,3514.96,0.00,0.00,0.00,0000 0000 0000 A000 020008
2018-09-24 08:37:47,0.00,0.00,0.00,27.35,30.26,32.01,-0.15,-4.75,1013.69,2014.64,3640.65,3051.24,3514.77,0.00,0.00,0.00,0000 0000 0000 A000 020008
2018-09-24 08:42:48,0.00,0.00,0.00,27.35,30.27,32.03,-0.15,-4.75,1013.69,2014.29,3640.20,3051.07,3514.32,0.00,0.00,0.00,0000 0000 0000 A000 020008
2018-09-24 08:47:49,0.00,0.00,0.00,27.36,30.29,32.07,-0.15,-4.74,1013.70,2014.19,3640.08,3051.02,3514.10,0.00,0.00,0.00,0000 0000 0000 A000 020008
2018-09-24 08:52:50,0.00,0.00,0.00,27.37,30.30,32.04,-0.15,-4.75,1013.71,2014.07,3640.02,3051.00,3514.01,0.00,0.00,0.00,0000 0000 0000 A000 020008
2018-09-24 08:57:51,0.00,0.00,0.00,27.39,30.32,32.04,-0.15,-4.75,1013.71,2014.02,3640.00,3051.00,3514.01,0.00,0.00,0.00,0000 0000 0000 A000 020008
2018-09-24 09:02:52,0.00,0.00,0.00,27.40,30.32,32.05,-0.15,-4.75,1013.73,2014.01,3640.00,3051.00,3514.00,0.00,0.00,0.00,0000 0000 0000 A000 020008
2018-09-24 09:07:54,0.00,0.00,0.00,27.40,30.35,32.07,-0.15,-4.75,1013.73,2014.01,3640.00,3050.99,3514.00,0.00,0.00,0.00,0000 0000 0000 A000 020008
2018-09-24 09:12:54,0.00,0.00,0.00,27.41,30.35,32.11,-0.15,-4.75,1013.81,2014.00,3639.99,3050.97,3513.98,0.00,0.00,0.00,0000 0000 0000 A000 020008
2018-09-24 09:17:56,0.00,0.00,0.00,27.42,30.37,32.12,-0.15,-4.75,1013.84,2014.00,3639.98,3050.94,3513.96,0.00,0.00,0.00,0000 0000 0000 A000 020008
2018-09-24 09:22:57,0.00,0.00,0.00,27.44,30.38,32.12,-0.15,-4.75,1014.01,2014.00,3639.91,3050.81,3513.86,0.00,0.00,0.00,0000 0000 0000 A000 020008
2018-09-24 09:27:58,0.00,0.00,0.00,27.45,30.40,32.17,-0.15,-4.75,1014.09,2014.00,3639.50,3050.30,3513.33,0.00,0.00,0.00,0000 0000 0000 A000 020008
2018-09-24 09:33:00,0.00,0.00,0.00,27.45,30.41,32.15,-0.15,-4.75,1014.14,2013.99,3639.11,3050.05,3513.05,0.00,0.00,0.00,0000 0000 0000 A000 020008
2018-09-24 09:38:01,0.00,0.00,0.00,27.46,30.42,32.15,-0.15,-4.75,1014.17,2013.98,3639.03,3050.02,3513.01,0.00,0.00,0.00,0000 0000 0000 A000 020008
2018-09-24 09:43:02,0.00,0.00,0.00,27.47,30.43,32.17,-0.15,-4.75,1014.17,2013.96,3639.01,3050.00,3513.00,0.00,0.00,0.00,0000 0000 0000 A000 020008
2018-09-24 09:48:04,0.00,0.00,0.00,27.48,30.45,32.19,-0.15,-4.75,1014.17,2013.96,3639.01,3050.00,3513.00,0.00,0.00,0.00,0000 0000 0000 A000 020008
2018-09-24 09:53:05,0.00,0.00,0.00,27.50,30.46,32.23,-0.15,-4.75,1014.17,2013.96,3639.00,3050.00,3513.00,0.00,0.00,0.00,0000 0000 0000 A000 020008
2018-09-24 09:58:06,0.00,0.00,0.00,27.50,30.47,32.22,-0.15,-4.75,1014.17,2013.91,3639.00,3050.00,3513.00,0.00,0.00,0.00,0000 0000 0000 A000 020008
2018-09-24 10:03:07,0.00,0.00,0.00,27.51,30.49,32.24,-0.15,-4.75,1014.17,2013.62,3638.97,3049.98,3512.95,0.00,0.00,0.00,0000 0000 0000 A000 020008
2018-09-24 10:08:08,0.00,0.00,0.00,27.52,30.50,32.27,-0.15,-4.75,1014.18,2013.20,3638.90,3049.92,3512.69,0.00,0.00,0.00,0000 0000 0000 A000 020008
2018-09-24 10:13:09,0.00,0.00,0.00,27.54,30.52,32.26,-0.15,-4.75,1014.19,2013.08,3638.59,3049.64,3512.21,0.00,0.00,0.00,0000 0000 0000 A000 020008
2018-09-24 10:18:10,0.00,0.00,0.00,27.55,30.53,32.28,-0.15,-4.75,1014.19,2013.04,3638.29,3049.34,3512.05,0.00,0.00,0.00,0000 0000 0000 A000 020008
2018-09-24 10:23:12,0.00,0.00,0.00,27.57,30.55,32.27,-0.15,-4.75,1014.20,2013.01,3638.11,3049.12,3512.02,0.00,0.00,0.00,0000 0000 0000 A000 020008
2018-09-24 10:28:12,0.00,0.00,0.00,27.57,30.55,32.31,-0.15,-4.75,1014.22,2013.01,3638.02,3049.04,3512.00,0.00,0.00,0.00,0000 0000 0000 A000 020008
2018-09-24 10:33:13,0.00,0.00,0.00,27.57,30.57,32.32,-0.15,-4.75,1014.20,2013.00,3638.01,3049.01,3512.00,0.00,0.00,0.00,0000 0000 0000 A000 020008
2018-09-24 10:38:15,0.00,0.00,0.00,27.58,30.58,32.31,-0.15,-4.75,1014.20,2013.00,3638.00,3049.00,3512.00,0.00,0.00,0.00,0000 0000 0000 A000 020008
2018-09-24 10:43:15,0.00,0.00,0.00,27.59,30.60,32.32,-0.15,-4.75,1014.21,2013.00,3638.00,3049.00,3512.00,0.00,0.00,0.00,0000 0000 0000 A000 020008
2018-09-24 10:48:17,0.00,0.00,0.00,27.60,30.61,32.34,-0.15,-4.75,1014.24,2013.00,3637.97,3048.99,3511.94,0.00,0.00,0.00,0000 0000 0000 A000 020008
2018-09-24 10:53:18,0.00,0.00,0.00,27.60,30.62,32.31,-0.15,-4.75,1014.36,2013.00,3637.97,3048.98,3511.80,0.00,0.00,0.00,0000 0000 0000 A000 020008
2018-09-24 10:58:19,0.00,0.00,0.00,27.60,30.63,32.34,-0.15,-4.75,1014.51,2012.99,3637.94,3048.97,3511.57,0.00,0.00,0.00,0000 0000 0000 A000 020008
2018-09-24 11:03:21,0.00,0.00,0.00,27.62,30.65,32.32,-0.15,-4.76,1014.63,2012.98,3637.69,3048.87,3511.17,0.00,0.00,0.00,0000 0000 0000 A000 020008
2018-09-24 11:08:22,0.00,0.00,0.00,27.62,30.66,32.38,-0.15,-4.75,1014.63,2012.95,3637.38,3048.62,3511.03,0.00,0.00,0.00,0000 0000 0000 A000 020008
2018-09-24 11:13:23,0.00,0.00,0.00,27.62,30.67,32.41,-0.15,-4.75,1014.64,2012.93,3637.11,3048.37,3511.01,0.00,0.00,0.00,0000 0000 0000 A000 020008
2018-09-24 11:18:25,0.00,0.00,0.00,27.62,30.68,32.38,-0.15,-4.75,1014.65,2012.91,3637.05,3048.17,3511.00,0.00,0.00,0.00,0000 0000 0000 A000 020008
2018-09-24 11:23:26,0.00,0.00,0.00,27.62,30.70,32.38,-0.15,-4.75,1014.66,2012.85,3637.04,3048.10,3511.00,0.00,0.00,0.00,0000 0000 0000 A000 020008
2018-09-24 11:28:27,0.00,0.00,0.00,27.62,30.70,32.42,-0.15,-4.75,1014.66,2012.69,3637.01,3048.03,3511.00,0.00,0.00,0.00,0000 0000 0000 A000 020008
2018-09-24 11:33:28,0.00,0.00,0.00,27.62,30.72,32.41,-0.15,-4.75,1014.66,2012.56,3637.00,3048.01,3510.99,0.00,0.00,0.00,0000 0000 0000 A000 020008
2018-09-24 11:38:29,0.00,0.00,0.00,27.62,30.72,32.40,-0.15,-4.76,1014.66,2012.21,3637.00,3048.00,3510.93,0.00,0.00,0.00,0000 0000 0000 A000 020008
2018-09-24 11:43:31,0.00,0.00,0.00,27.63,30.74,32.40,-0.15,-4.77,1014.66,2012.04,3636.97,3048.00,3510.74,0.00,0.00,0.00,0000 0000 0000 A000 020008
2018-09-24 11:48:32,0.00,0.00,0.00,27.64,30.75,32.41,-0.15,-4.77,1014.66,2012.03,3636.94,3048.00,3510.30,0.00,0.00,0.00,0000 0000 0000 A000 020008
2018-09-24 11:53:33,0.00,0.00,0.00,27.65,30.75,32.46,-0.15,-4.78,1014.66,2012.00,3636.89,3047.98,3510.13,0.00,0.00,0.00,0000 0000 0000 A000 020008
2018-09-24 11:58:34,0.00,0.00,0.00,27.65,30.77,32.44,-0.15,-4.79,1014.67,2012.01,3636.66,3047.95,3510.04,0.00,0.00,0.00,0000 0000 0000 A000 020008
2018-09-24 12:03:35,0.00,0.00,0.00,27.65,30.77,32.41,-0.15,-4.80,1014.67,2012.00,3636.29,3047.87,3510.01,0.00,0.00,0.00,0000 0000 0000 A000 020008
2018-09-24 12:08:36,0.00,0.00,0.00,27.65,30.79,32.42,-0.15,-4.80,1014.67,2012.00,3636.27,3047.88,3510.00,0.00,0.00,0.00,0000 0000 0000 A000 020008
2018-09-24 12:13:37,0.00,0.00,0.00,27.65,30.80,32.46,-0.15,-4.79,1014.68,2012.00,3636.06,3047.49,3510.00,0.00,0.00,0.00,0000 0000 0000 A000 020008
2018-09-24 12:18:38,0.00,0.00,0.00,27.66,30.80,32.48,-0.15,-4.81,1014.68,2012.00,3636.07,3047.58,3510.00,0.00,0.00,0.00,0000 0000 0000 A000 020008
2018-09-24 12:23:39,0.00,0.00,0.00,27.66,30.82,32.49,-0.15,-4.80,1014.68,2012.00,3636.03,3047.33,3510.00,0.00,0.00,0.00,0000 0000 0000 A000 020008
2018-09-24 12:28:40,0.00,0.00,0.00,27.66,30.82,32.44,-0.15,-4.79,1014.69,2012.00,3636.00,3047.07,3509.99,0.00,0.00,0.00,0000 0000 0000 A000 020008
2018-09-24 12:33:41,0.00,0.00,0.00,27.66,30.83,32.47,-0.15,-4.78,1014.71,2012.00,3636.00,3047.03,3509.98,0.00,0.00,0.00,0000 0000 0000 A000 020008
2018-09-24 12:38:42,0.00,0.00,0.00,27.67,30.85,32.49,-0.15,-4.89,1014.76,2012.00,3636.00,3047.01,3509.96,0.00,0.00,0.00,0000 0000 0000 A000 020008
2018-09-24 12:43:44,0.00,0.00,0.00,27.68,30.85,32.45,-0.15,-4.85,1014.84,2011.97,3636.00,3047.01,3509.75,0.00,0.00,0.00,0000 0000 0000 A000 020008
2018-09-24 12:48:45,0.00,0.00,0.00,27.67,30.85,32.46,-0.15,-4.88,1014.70,2011.97,3635.98,3047.00,3509.40,0.00,0.00,0.00,0000 0000 0000 A000 020008
2018-09-24 12:53:46,0.00,0.00,0.00,27.67,30.86,32.47,-0.15,-4.91,1014.70,2011.97,3635.98,3047.00,3509.29,0.00,0.00,0.00,0000 0000 0000 A000 020008
2018-09-24 12:58:47,0.00,0.00,0.00,27.69,30.87,32.47,-0.15,-4.93,1014.79,2011.94,3635.89,3046.99,3509.07,0.00,0.00,0.00,0000 0000 0000 A000 020008
2018-09-24 13:03:48,0.00,0.00,0.00,27.70,30.87,32.48,-0.15,-4.93,1014.74,2011.92,3635.86,3046.98,3509.05,0.00,0.00,0.00,0000 0000 0000 A000 020008
2018-09-24 13:08:50,0.00,0.00,0.00,27.70,30.88,32.50,-0.15,-4.92,1014.72,2011.93,3635.92,3046.99,3509.06,0.00,0.00,0.00,0000 0000 0000 A000 020008
2018-09-24 13:13:51,0.00,0.00,0.00,27.71,30.90,32.51,-0.15,-4.90,1014.72,2011.92,3635.90,3046.99,3509.05,0.00,0.00,0.00,0000 0000 0000 A000 020008
2018-09-24 13:18:52,0.00,0.00,0.00,27.72,30.90,32.50,-0.15,-4.92,1014.82,2011.91,3635.84,3046.98,3509.02,0.00,0.00,0.00,0000 0000 0000 A000 020008